Tracking 31027 objects as of 19-Jul-2025
HD Live streaming from Space Station
objects crossing your sky now

STARLINK-3991

Track STARLINK-3991 now!
10-day predictions
STARLINK-3991 is classified as:


NORAD ID: 52641
Int'l Code: 2022-052AV
Perigee: 546.3 km
Apogee: 547.5 km
Inclination: 53.2 °
Period: 95.4 minutes
Semi major axis: 6917 km
RCS: Unknown
Launch date: May 14, 2022
Source: United States (US)
Launch site: AIR FORCE EASTERN TEST RANGE (AFETR)
Your satellite tracking list
COSMOS 1408 DEB
Track 1 satellite(s)




NASA's NSSDC Master Catalog

Two Line Element Set (TLE):
1 52641U 22052AV  25199.38957536  .00000376  00000-0  41677-4 0  9996
2 52641  53.2160 231.1379 0000902  56.5133 303.5945 15.08835806175766
Source of the keplerian elements: AFSPC